| time (UTC) | temp F | wind direction | speed MPH | gust MPH | rain 1hr in | rain 24hr in | rain mn in | humidity % | barometer mb |
| 20260508170004 | 54 | 176 | 2.0 | 8.0 | 0.00 | 0.00 | 0.00 | 71 | 1019.7 |
| 20260508164501 | 54 | 178 | 2.0 | 7.0 | 0.00 | 0.00 | 0.00 | 75 | 1019.6 |
| 20260508163058 | 53 | 171 | 2.0 | 6.0 | 0.00 | 0.00 | 0.00 | 77 | 1019.4 |
| 20260508161557 | 52 | 158 | 5.0 | 8.0 | 0.00 | 0.00 | 0.00 | 77 | 1019.3 |
| 20260508160126 | 52 | 150 | 2.0 | 8.0 | 0.00 | 0.00 | 0.00 | 79 | 1019.1 |
| 20260508154557 | 51 | 179 | 4.0 | 9.0 | 0.00 | 0.00 | 0.00 | 79 | 1019.2 |
| 20260508153050 | 51 | 179 | 7.0 | 9.0 | 0.00 | 0.00 | 0.00 | 78 | 1018.9 |
| 20260508151551 | 50 | 146 | 4.0 | 7.0 | 0.00 | 0.00 | 0.00 | 84 | 1018.8 |
| 20260508150046 | 48 | 179 | 3.0 | 5.0 | 0.00 | 0.00 | 0.00 | 86 | 1018.7 |
| 20260508144547 | 48 | 179 | 3.0 | 5.0 | 0.00 | 0.00 | 0.00 | 88 | 1018.5 |
| 20260508143057 | 47 | 179 | 2.0 | 3.0 | 0.00 | 0.00 | 0.00 | 89 | 1018.7 |
| 20260508141552 | 46 | 179 | 1.0 | 4.0 | 0.00 | 0.00 | 0.00 | 91 | 1018.5 |
| 20260508140042 | 46 | 179 | 3.0 | 4.0 | 0.00 | 0.00 | 0.00 | 91 | 1018.6 |
| 20260508134538 | 45 | 179 | 1.0 | 2.0 | 0.00 | 0.00 | 0.00 | 92 | 1018.4 |
| 20260508133040 | 0 | 0.0 | 0.0 | 0.00 | 0.00 | 0.00 | 1017.9 | ||
| 20260508131530 | 0 | 0.0 | 0.0 | 0.00 | 0.00 | 0.00 | 1017.7 | ||
| 20260508130025 | 0 | 0.0 | 0.0 | 0.00 | 0.00 | 0.00 | 1017.5 | ||
| 20260508124520 | 0 | 0.0 | 0.0 | 0.00 | 0.00 | 0.00 | 1017.3 | ||
| 20260508123018 | 45 | 180 | 0.0 | 0.0 | 0.00 | 0.00 | 0.00 | 88 | 1017.1 |
| 20260508121546 | 46 | 179 | 0.0 | 2.0 | 0.00 | 0.00 | 0.00 | 87 | 1016.9 |
| 20260508120015 | 46 | 179 | 2.0 | 3.0 | 0.00 | 0.00 | 0.00 | 89 | 1016.5 |
| 20260508114512 | 46 | 179 | 0.0 | 0.0 | 0.00 | 0.00 | 0.00 | 90 | 1016.7 |
| 20260508113011 | 46 | 179 | 0.0 | 0.0 | 0.00 | 0.00 | 0.00 | 89 | 1016.6 |
| 20260508111509 | 46 | 179 | 0.0 | 1.0 | 0.00 | 0.00 | 0.00 | 89 | 1016.4 |
| 20260508110005 | 46 | 179 | 0.0 | 2.0 | 0.00 | 0.00 | 0.00 | 89 | 1016.0 |
| 20260508104505 | 46 | 179 | 2.0 | 3.0 | 0.00 | 0.00 | 0.00 | 89 | 1015.9 |
| 20260508103007 | 46 | 179 | 3.0 | 5.0 | 0.00 | 0.00 | 0.00 | 89 | 1015.8 |
| 20260508101601 | 46 | 179 | 2.0 | 5.0 | 0.00 | 0.00 | 0.00 | 90 | 1015.8 |
| 20260508100058 | 46 | 179 | 1.0 | 4.0 | 0.00 | 0.00 | 0.00 | 91 | 1015.6 |
| 20260508094609 | 47 | 179 | 3.0 | 4.0 | 0.00 | 0.00 | 0.00 | 90 | 1015.6 |
| 20260508093053 | 47 | 179 | 1.0 | 3.0 | 0.00 | 0.00 | 0.00 | 89 | 1015.5 |
| 20260508091554 | 48 | 179 | 2.0 | 5.0 | 0.00 | 0.00 | 0.00 | 89 | 1015.2 |
| 20260508090050 | 48 | 179 | 3.0 | 5.0 | 0.00 | 0.00 | 0.00 | 89 | 1015.2 |
| 20260508084547 | 48 | 179 | 4.0 | 6.0 | 0.00 | 0.00 | 0.00 | 88 | 1015.1 |
| 20260508083119 | 49 | 179 | 3.0 | 5.0 | 0.00 | 0.00 | 0.00 | 87 | 1015.0 |
| 20260508081551 | 49 | 179 | 3.0 | 4.0 | 0.00 | 0.00 | 0.00 | 87 | 1014.9 |
| 20260508080050 | 50 | 180 | 2.0 | 3.0 | 0.00 | 0.00 | 0.00 | 86 | 1014.8 |
| 20260508074537 | 51 | 179 | 2.0 | 3.0 | 0.00 | 0.00 | 0.00 | 85 | 1014.9 |
| 20260508073034 | 51 | 179 | 2.0 | 3.0 | 0.00 | 0.00 | 0.00 | 83 | 1014.8 |
| 20260508071534 | 52 | 179 | 2.0 | 3.0 | 0.00 | 0.00 | 0.00 | 82 | 1014.7 |
| 20260508070030 | 52 | 179 | 1.0 | 4.0 | 0.00 | 0.00 | 0.00 | 84 | 1014.7 |
| 20260508064544 | 53 | 179 | 2.0 | 4.0 | 0.00 | 0.00 | 0.00 | 80 | 1014.7 |
| 20260508063028 | 54 | 179 | 3.0 | 5.0 | 0.00 | 0.00 | 0.00 | 81 | 1014.7 |
| 20260508061528 | 55 | 179 | 4.0 | 7.0 | 0.00 | 0.00 | 0.00 | 80 | 1014.9 |
| 20260508060026 | 55 | 164 | 4.0 | 6.0 | 0.00 | 0.00 | 0.00 | 81 | 1014.8 |
| 20260508054525 | 56 | 153 | 2.0 | 3.0 | 0.00 | 0.00 | 0.00 | 79 | 1014.8 |
| 20260508053026 | 57 | 154 | 0.0 | 2.0 | 0.00 | 0.00 | 0.00 | 79 | 1014.7 |
| 20260508051525 | 57 | 150 | 0.0 | 2.0 | 0.00 | 0.00 | 0.00 | 78 | 1014.8 |
| 20260508050023 | 58 | 146 | 1.0 | 3.0 | 0.00 | 0.00 | 0.00 | 78 | 1014.5 |
| 20260508044523 | 59 | 177 | 0.0 | 2.0 | 0.00 | 0.00 | 0.00 | 73 | 1014.5 |
| 20260508043024 | 61 | 177 | 0.0 | 1.0 | 0.00 | 0.00 | 0.00 | 71 | 1014.5 |
| 20260508041521 | 61 | 177 | 1.0 | 2.0 | 0.00 | 0.00 | 0.00 | 70 | 1014.4 |
| 20260508040021 | 62 | 177 | 1.0 | 2.0 | 0.00 | 0.00 | 0.00 | 69 | 1014.2 |
| 20260508034521 | 63 | 177 | 0.0 | 0.0 | 0.00 | 0.00 | 0.00 | 67 | 1013.9 |
| 20260508033020 | 64 | 177 | 0.0 | 2.0 | 0.00 | 0.00 | 0.00 | 65 | 1013.9 |
| 20260508031519 | 65 | 178 | 0.0 | 1.0 | 0.00 | 0.00 | 0.00 | 62 | 1013.7 |
| 20260508030019 | 66 | 177 | 0.0 | 1.0 | 0.00 | 0.00 | 0.00 | 60 | 1013.7 |
| 20260508024525 | 67 | 178 | 0.0 | 2.0 | 0.00 | 0.00 | 0.00 | 59 | 1013.7 |
| 20260508023025 | 67 | 179 | 0.0 | 0.0 | 0.00 | 0.00 | 0.00 | 59 | 1013.8 |
| 20260508021515 | 68 | 178 | 0.0 | 4.0 | 0.00 | 0.00 | 0.00 | 58 | 1013.7 |
| 20260508020016 | 68 | 178 | 3.0 | 5.0 | 0.00 | 0.00 | 0.00 | 54 | 1013.8 |
| 20260508014514 | 69 | 178 | 4.0 | 6.0 | 0.00 | 0.00 | 0.00 | 53 | 1013.7 |
| 20260508013011 | 70 | 179 | 2.0 | 4.0 | 0.00 | 0.00 | 0.00 | 49 | 1014.0 |
| 20260508011510 | 71 | 178 | 0.0 | 4.0 | 0.00 | 0.00 | 0.00 | 48 | 1014.2 |
| 20260508010008 | 71 | 177 | 3.0 | 6.0 | 0.00 | 0.00 | 0.00 | 48 | 1014.3 |
| 20260508004507 | 70 | 174 | 3.0 | 7.0 | 0.00 | 0.00 | 0.00 | 47 | 1014.3 |
| 20260508003007 | 70 | 176 | 3.0 | 8.0 | 0.00 | 0.00 | 0.00 | 46 | 1014.3 |
| 20260508001505 | 71 | 154 | 0.0 | 4.0 | 0.00 | 0.00 | 0.00 | 46 | 1014.4 |
| 20260508000004 | 71 | 175 | 2.0 | 6.0 | 0.00 | 0.00 | 0.00 | 47 | 1014.6 |
| 20260507234501 | 70 | 176 | 0.0 | 6.0 | 0.00 | 0.00 | 0.00 | 49 | 1014.7 |
| 20260507233101 | 71 | 174 | 0.0 | 4.0 | 0.00 | 0.00 | 0.00 | 50 | 1014.8 |
| 20260507231613 | 71 | 175 | 1.0 | 4.0 | 0.00 | 0.00 | 0.00 | 51 | 1015.0 |
| 20260507230057 | 69 | 176 | 0.0 | 3.0 | 0.00 | 0.00 | 0.00 | 54 | 1015.4 |
| 20260507224604 | 68 | 178 | 4.0 | 7.0 | 0.00 | 0.00 | 0.00 | 54 | 1015.6 |
| 20260507223052 | 68 | 176 | 0.0 | 4.0 | 0.00 | 0.00 | 0.00 | 58 | 1015.7 |
| 20260507221550 | 68 | 179 | 3.0 | 5.0 | 0.00 | 0.00 | 0.00 | 55 | 1015.9 |
| 20260507220048 | 70 | 176 | 0.0 | 3.0 | 0.00 | 0.00 | 0.00 | 52 | 1016.2 |
| 20260507214546 | 67 | 153 | 3.0 | 8.0 | 0.00 | 0.00 | 0.00 | 54 | 1016.3 |
| 20260507213052 | 67 | 176 | 2.0 | 6.0 | 0.00 | 0.00 | 0.00 | 57 | 1016.5 |
| 20260507211542 | 66 | 177 | 2.0 | 6.0 | 0.00 | 0.00 | 0.00 | 55 | 1016.6 |
| 20260507210042 | 66 | 177 | 2.0 | 7.0 | 0.00 | 0.00 | 0.00 | 56 | 1016.8 |
| 20260507204545 | 66 | 176 | 1.0 | 6.0 | 0.00 | 0.00 | 0.00 | 57 | 1017.0 |
| 20260507203033 | 64 | 177 | 2.0 | 5.0 | 0.00 | 0.00 | 0.00 | 57 | 1017.1 |
| 20260507201529 | 63 | 178 | 0.0 | 4.0 | 0.00 | 0.00 | 0.00 | 60 | 1017.4 |
| 20260507200034 | 63 | 179 | 1.0 | 7.0 | 0.00 | 0.00 | 0.00 | 59 | 1017.6 |
| 20260507194526 | 64 | 179 | 2.0 | 6.0 | 0.00 | 0.00 | 0.00 | 59 | 1017.7 |
| 20260507193028 | 63 | 177 | 3.0 | 6.0 | 0.00 | 0.00 | 0.00 | 58 | 1017.8 |
| 20260507191522 | 63 | 155 | 1.0 | 6.0 | 0.00 | 0.00 | 0.00 | 60 | 1017.9 |
| 20260507190032 | 62 | 179 | 1.0 | 6.0 | 0.00 | 0.00 | 0.00 | 62 | 1018.1 |
| 20260507184525 | 61 | 179 | 4.0 | 7.0 | 0.00 | 0.00 | 0.00 | 63 | 1018.2 |
| 20260507183019 | 61 | 179 | 2.0 | 6.0 | 0.00 | 0.00 | 0.00 | 61 | 1018.4 |
| 20260507181515 | 61 | 178 | 2.0 | 5.0 | 0.00 | 0.00 | 0.00 | 63 | 1018.5 |
| 20260507180013 | 59 | 168 | 1.0 | 3.0 | 0.00 | 0.00 | 0.00 | 66 | 1018.6 |
| 20260507174512 | 60 | 177 | 0.0 | 3.0 | 0.00 | 0.00 | 0.00 | 66 | 1018.7 |
| 20260507173008 | 57 | 178 | 0.0 | 3.0 | 0.00 | 0.00 | 0.00 | 69 | 1018.8 |
| 20260507171503 | 55 | 177 | 1.0 | 6.0 | 0.00 | 0.00 | 0.00 | 73 | 1018.9 |